timestamp,wind_dir_avg,wind_spd_avg,wind_spd_max_dir,wind_spd_gust,battery_voltage,lat,long
2023-07-13 00:04:00+00:00,222.0,3.62,224.0,4.04,13.05,47.59359,-54.27349
2023-07-13 00:14:01+00:00,214.0,3.0,216.0,3.32,12.49,47.59359,-54.27349
2023-07-13 00:24:01+00:00,208.0,2.54,209.0,2.9,12.49,47.59359,-54.27349
2023-07-13 00:34:01+00:00,193.0,2.47,194.0,2.87,12.49,47.59359,-54.27349
2023-07-13 00:44:01+00:00,184.0,1.83,189.0,2.11,12.49,47.59359,-54.27349
2023-07-13 00:54:01+00:00,171.0,1.49,168.0,1.74,12.49,47.59359,-54.27349
2023-07-13 01:04:01+00:00,160.0,2.05,159.0,2.39,12.49,47.59359,-54.27349
2023-07-13 01:14:01+00:00,164.0,2.56,169.0,3.08,12.41,47.59359,-54.27349
2023-07-13 01:24:01+00:00,191.0,0.94,192.0,1.04,12.41,47.59359,-54.27349
2023-07-13 01:34:01+00:00,289.0,1.51,287.0,1.71,12.41,47.59359,-54.27349
2023-07-13 01:44:01+00:00,274.0,1.4,267.0,1.58,12.41,47.59359,-54.27349
2023-07-13 01:54:01+00:00,282.0,1.32,283.0,1.59,12.41,47.59359,-54.27349
2023-07-13 02:04:01+00:00,270.0,1.82,269.0,2.0,12.41,47.59359,-54.27349
2023-07-13 02:14:00+00:00,210.0,1.04,212.0,1.25,12.41,47.59359,-54.27349
2023-07-13 02:24:00+00:00,230.0,1.08,224.0,1.44,12.41,47.59359,-54.27349
2023-07-13 02:34:00+00:00,219.0,0.67,226.0,0.9,12.41,47.59359,-54.27349
2023-07-13 02:44:00+00:00,176.0,3.47,170.0,3.99,12.41,47.59359,-54.27349
2023-07-13 02:54:00+00:00,167.0,3.91,170.0,4.41,12.41,47.59359,-54.27349
2023-07-13 03:04:00+00:00,169.0,4.21,168.0,4.48,12.41,47.59359,-54.27349
2023-07-13 03:14:00+00:00,170.0,3.82,171.0,4.18,12.41,47.59359,-54.27349
2023-07-13 03:24:00+00:00,167.0,2.97,163.0,3.61,12.41,47.59359,-54.27349
2023-07-13 03:34:00+00:00,161.0,3.67,169.0,4.41,12.41,47.59359,-54.27349
2023-07-13 03:44:00+00:00,174.0,4.05,174.0,4.33,12.41,47.59359,-54.27349
2023-07-13 03:54:00+00:00,176.0,3.26,180.0,3.76,12.41,47.59359,-54.27349
2023-07-13 04:04:00+00:00,177.0,2.18,173.0,2.58,12.41,47.59359,-54.27349
2023-07-13 04:14:00+00:00,178.0,2.36,180.0,2.57,12.41,47.59359,-54.27349
2023-07-13 04:24:00+00:00,198.0,1.94,196.0,2.09,12.41,47.59359,-54.27349
2023-07-13 04:34:00+00:00,204.0,1.51,204.0,1.78,12.41,47.59359,-54.27349
2023-07-13 04:44:00+00:00,205.0,1.63,207.0,1.69,12.41,47.59359,-54.27349
2023-07-13 04:54:00+00:00,214.0,1.72,215.0,1.9,12.41,47.59359,-54.27349
2023-07-13 05:04:00+00:00,205.0,1.36,202.0,1.47,12.41,47.59359,-54.27349
2023-07-13 05:14:00+00:00,200.0,0.92,200.0,1.03,12.33,47.59359,-54.27349
2023-07-13 05:24:00+00:00,275.0,1.54,277.0,1.75,12.33,47.59359,-54.27349
2023-07-13 05:34:00+00:00,310.0,1.71,310.0,1.84,12.33,47.59359,-54.27349
2023-07-13 05:44:00+00:00,316.0,1.01,319.0,1.15,12.33,47.59359,-54.27349
2023-07-13 05:54:00+00:00,313.0,0.72,316.0,0.92,12.33,47.59359,-54.27349
2023-07-13 06:04:00+00:00,349.0,0.69,349.0,0.81,12.33,47.59359,-54.27349
2023-07-13 06:14:00+00:00,30.0,0.51,30.0,0.61,12.33,47.59359,-54.27349
2023-07-13 06:24:00+00:00,326.0,0.47,325.0,0.58,12.33,47.59359,-54.27349
2023-07-13 06:34:00+00:00,19.0,1.43,18.0,1.54,12.33,47.59359,-54.27349
2023-07-13 06:44:00+00:00,15.0,1.39,12.0,1.63,12.33,47.59359,-54.27349
2023-07-13 06:54:00+00:00,1.0,1.54,357.0,1.67,12.33,47.59359,-54.27349
2023-07-13 07:04:00+00:00,9.0,1.66,13.0,1.78,12.33,47.59359,-54.27349
2023-07-13 07:14:00+00:00,2.0,1.64,1.0,1.74,12.33,47.59359,-54.27349
2023-07-13 07:24:00+00:00,2.0,1.46,2.0,1.52,12.33,47.59359,-54.27349
2023-07-13 07:34:00+00:00,4.0,1.49,4.0,1.61,12.33,47.59359,-54.27349
2023-07-13 07:44:00+00:00,7.0,1.66,7.0,1.83,12.33,47.59359,-54.27349
2023-07-13 07:54:00+00:00,12.0,2.2,14.0,2.52,12.33,47.59359,-54.27349
2023-07-13 08:04:00+00:00,18.0,2.09,16.0,2.32,12.33,47.59359,-54.27349
2023-07-13 08:14:00+00:00,358.0,1.47,7.0,1.87,12.25,47.59359,-54.27349
2023-07-13 08:24:00+00:00,358.0,2.1,357.0,2.27,12.25,47.59359,-54.27349
2023-07-13 08:34:00+00:00,6.0,2.08,10.0,2.26,12.25,47.59359,-54.27349
2023-07-13 08:44:00+00:00,1.0,2.49,1.0,2.72,12.25,47.59359,-54.27349
2023-07-13 08:54:00+00:00,6.0,2.87,0.0,3.36,12.25,47.59359,-54.27349
2023-07-13 09:04:00+00:00,14.0,3.11,11.0,3.42,12.25,47.59359,-54.27349
2023-07-13 09:14:00+00:00,15.0,3.06,14.0,3.34,12.33,47.59359,-54.27349
2023-07-13 09:24:00+00:00,31.0,2.49,30.0,2.71,12.33,47.59359,-54.27349
2023-07-13 09:34:00+00:00,22.0,1.96,24.0,2.06,12.33,47.59359,-54.27349
2023-07-13 09:44:00+00:00,33.0,2.14,33.0,2.35,12.33,47.59359,-54.27349
2023-07-13 09:54:00+00:00,5.0,2.12,0.0,2.6,12.33,47.59359,-54.27349
2023-07-13 10:04:00+00:00,15.0,2.09,15.0,2.42,12.33,47.59359,-54.27349
2023-07-13 10:14:00+00:00,18.0,1.94,19.0,2.12,12.65,47.59359,-54.27349
2023-07-13 10:24:00+00:00,30.0,2.21,31.0,2.31,12.65,47.59359,-54.27349
2023-07-13 10:34:00+00:00,40.0,1.38,41.0,1.68,12.65,47.59359,-54.27349
2023-07-13 10:44:00+00:00,61.0,2.01,62.0,2.19,12.65,47.59359,-54.27349
2023-07-13 10:54:00+00:00,47.0,1.72,45.0,1.94,12.65,47.59359,-54.27349
2023-07-13 11:04:00+00:00,40.0,1.34,36.0,1.58,12.65,47.59359,-54.27349
2023-07-13 11:14:00+00:00,39.0,1.69,40.0,2.01,13.53,47.59359,-54.27349
2023-07-13 11:24:00+00:00,38.0,1.63,37.0,1.85,13.53,47.59359,-54.27349
2023-07-13 11:34:00+00:00,39.0,1.9,40.0,2.01,13.53,47.59359,-54.27349
2023-07-13 11:44:00+00:00,20.0,1.45,18.0,1.65,13.53,47.59359,-54.27349
2023-07-13 11:54:00+00:00,30.0,1.71,31.0,1.83,13.53,47.59359,-54.27349
2023-07-13 12:04:00+00:00,32.0,1.4,28.0,1.64,13.53,47.59359,-54.27349
2023-07-13 12:14:00+00:00,38.0,1.81,50.0,2.24,13.37,47.59359,-54.27349
2023-07-13 12:24:00+00:00,56.0,1.84,52.0,2.03,13.37,47.59359,-54.27349
2023-07-13 12:34:00+00:00,47.0,1.33,48.0,1.58,13.37,47.59359,-54.27349
2023-07-13 12:44:00+00:00,45.0,1.06,44.0,1.22,13.37,47.59359,-54.27349
2023-07-13 12:54:00+00:00,41.0,0.87,37.0,1.0,13.37,47.59359,-54.27349
2023-07-13 13:04:00+00:00,30.0,0.56,33.0,0.68,13.37,47.59359,-54.27349
2023-07-13 13:14:00+00:00,24.0,0.63,31.0,0.82,13.84,47.59359,-54.27349
2023-07-13 13:24:00+00:00,311.0,1.03,316.0,1.12,13.84,47.59359,-54.27349
2023-07-13 13:34:00+00:00,294.0,0.61,296.0,0.74,13.84,47.59359,-54.27349
2023-07-13 13:44:00+00:00,331.0,0.89,332.0,1.1,13.84,47.59359,-54.27349
2023-07-13 13:54:00+00:00,332.0,1.06,326.0,1.35,13.84,47.59359,-54.27349
2023-07-13 14:04:00+00:00,322.0,1.35,323.0,1.59,13.84,47.59359,-54.27349
2023-07-13 14:14:00+00:00,316.0,0.77,304.0,1.05,14.08,47.59359,-54.27349
2023-07-13 14:24:00+00:00,341.0,0.71,338.0,0.9,14.08,47.59359,-54.27349
2023-07-13 14:34:00+00:00,283.0,0.54,298.0,0.68,14.08,47.59359,-54.27349
2023-07-13 14:44:00+00:00,255.0,2.02,261.0,2.35,14.08,47.59359,-54.27349
2023-07-13 14:54:00+00:00,249.0,2.48,245.0,2.76,14.08,47.59359,-54.27349
2023-07-13 15:04:00+00:00,229.0,2.42,242.0,2.98,14.08,47.59359,-54.27349
2023-07-13 15:14:00+00:00,212.0,4.01,212.0,4.53,13.53,47.59359,-54.27349
2023-07-13 15:24:00+00:00,223.0,5.32,219.0,5.96,13.53,47.59359,-54.27349
2023-07-13 15:34:00+00:00,212.0,6.72,212.0,7.3,13.53,47.59359,-54.27349
2023-07-13 15:44:00+00:00,223.0,6.29,224.0,6.98,13.53,47.59359,-54.27349
2023-07-13 15:54:00+00:00,221.0,6.53,221.0,7.22,13.53,47.59359,-54.27349
2023-07-13 16:04:00+00:00,227.0,7.25,234.0,10.33,13.53,47.59359,-54.27349
2023-07-13 16:14:00+00:00,218.0,6.97,216.0,7.89,14.0,47.59359,-54.27349
2023-07-13 16:24:00+00:00,219.0,6.55,215.0,7.09,14.0,47.59359,-54.27349
2023-07-13 16:34:00+00:00,219.0,6.55,227.0,7.61,14.0,47.59359,-54.27349
2023-07-13 16:44:00+00:00,223.0,7.14,223.0,8.2,14.0,47.59359,-54.27349
2023-07-13 16:54:00+00:00,219.0,7.95,216.0,8.84,14.0,47.59359,-54.27349
2023-07-13 17:04:00+00:00,224.0,7.45,230.0,8.86,14.0,47.59359,-54.27349
2023-07-13 17:14:00+00:00,224.0,7.37,222.0,7.94,14.32,47.59359,-54.27349
2023-07-13 17:24:00+00:00,224.0,6.37,219.0,7.12,14.32,47.59359,-54.27349
2023-07-13 17:34:00+00:00,224.0,6.15,226.0,7.13,14.32,47.59359,-54.27349
2023-07-13 17:44:00+00:00,221.0,5.98,221.0,7.25,14.32,47.59359,-54.27349
2023-07-13 17:54:00+00:00,227.0,6.26,228.0,7.0,14.32,47.59359,-54.27349
2023-07-13 18:04:00+00:00,235.0,6.19,237.0,6.82,14.32,47.59359,-54.27349
2023-07-13 18:14:00+00:00,234.0,6.59,234.0,7.5,14.08,47.59359,-54.27349
2023-07-13 18:24:00+00:00,231.0,6.54,235.0,7.48,14.08,47.59359,-54.27349
2023-07-13 18:34:00+00:00,226.0,7.07,226.0,7.94,14.08,47.59359,-54.27349
2023-07-13 18:44:00+00:00,225.0,6.39,224.0,7.26,14.08,47.59359,-54.27349
2023-07-13 18:54:00+00:00,232.0,5.11,234.0,5.9,14.08,47.59359,-54.27349
2023-07-13 19:04:00+00:00,230.0,5.32,229.0,5.79,14.08,47.59359,-54.27349
2023-07-13 19:14:01+00:00,232.0,4.72,235.0,5.48,13.76,47.59359,-54.27349
2023-07-13 19:24:01+00:00,227.0,5.8,228.0,6.56,13.76,47.59359,-54.27349
2023-07-13 19:34:01+00:00,223.0,5.36,225.0,6.31,13.76,47.59359,-54.27349
2023-07-13 19:44:01+00:00,217.0,5.96,219.0,6.59,13.76,47.59359,-54.27349
2023-07-13 19:54:01+00:00,221.0,6.54,220.0,7.25,13.76,47.59359,-54.27349
2023-07-13 20:04:01+00:00,222.0,6.1,227.0,6.74,13.76,47.59359,-54.27349
2023-07-13 20:14:00+00:00,218.0,5.87,224.0,6.95,13.68,47.59359,-54.27349
2023-07-13 20:24:00+00:00,217.0,6.15,218.0,6.8,13.68,47.59359,-54.27349
2023-07-13 20:34:00+00:00,212.0,7.7,211.0,8.46,13.68,47.59359,-54.27349
2023-07-13 20:44:00+00:00,212.0,7.38,214.0,7.97,13.68,47.59359,-54.27349
2023-07-13 20:54:00+00:00,214.0,7.18,224.0,8.07,13.68,47.59359,-54.27349
2023-07-13 21:04:00+00:00,217.0,6.32,217.0,7.13,13.68,47.59359,-54.27349
2023-07-13 21:14:01+00:00,223.0,5.21,228.0,6.96,13.37,47.59359,-54.27349
2023-07-13 21:24:01+00:00,226.0,4.81,224.0,5.43,13.37,47.59359,-54.27349
2023-07-13 21:34:01+00:00,227.0,5.33,226.0,5.86,13.37,47.59359,-54.27349
2023-07-13 21:44:01+00:00,232.0,4.97,234.0,5.85,13.37,47.59359,-54.27349
2023-07-13 21:54:01+00:00,237.0,4.86,239.0,5.32,13.37,47.59359,-54.27349
2023-07-13 22:04:01+00:00,234.0,3.65,235.0,4.14,13.37,47.59359,-54.27349
2023-07-13 22:14:00+00:00,225.0,3.73,228.0,4.32,13.21,47.59359,-54.27349
2023-07-13 22:24:00+00:00,232.0,4.95,236.0,5.67,13.21,47.59359,-54.27349
2023-07-13 22:34:00+00:00,228.0,3.91,229.0,4.35,13.21,47.59359,-54.27349
2023-07-13 22:44:00+00:00,228.0,2.83,233.0,3.45,13.21,47.59359,-54.27349
2023-07-13 22:54:00+00:00,231.0,2.05,231.0,2.86,13.21,47.59359,-54.27349
2023-07-13 23:04:00+00:00,313.0,0.36,11.0,0.65,13.21,47.59359,-54.27349
2023-07-13 23:14:00+00:00,80.0,1.32,55.0,1.97,12.73,47.59359,-54.27349
2023-07-13 23:24:00+00:00,204.0,0.43,216.0,1.09,12.73,47.59359,-54.27349
2023-07-13 23:34:00+00:00,55.0,0.85,66.0,1.61,12.73,47.59359,-54.27349
2023-07-13 23:44:00+00:00,304.0,1.95,308.0,2.44,12.73,47.59359,-54.27349
2023-07-13 23:54:00+00:00,279.0,1.37,273.0,1.89,12.73,47.59359,-54.27349
